TimeCST,TemperatureF,Dew PointF,Humidity,Sea Level PressureIn,VisibilityMPH,Wind Direction,Wind SpeedMPH,Gust SpeedMPH,PrecipitationIn,Events,Conditions,WindDirDegrees,DateUTC
12:15 AM,46.4,32.0,57,29.82,10.0,SSE,8.1,-,N/A,,Clear,160,2012-11-09 06:15:00
12:35 AM,46.4,32.0,57,29.81,10.0,SSE,8.1,-,N/A,,Clear,160,2012-11-09 06:35:00
12:55 AM,50.0,33.8,54,29.82,10.0,SSE,8.1,-,N/A,,Clear,160,2012-11-09 06:55:00
1:15 AM,50.0,33.8,54,29.81,10.0,SSE,9.2,-,N/A,,Clear,160,2012-11-09 07:15:00
1:35 AM,50.0,33.8,54,29.81,10.0,South,10.4,-,N/A,,Clear,170,2012-11-09 07:35:00
1:55 AM,51.8,32.0,47,29.80,10.0,South,10.4,-,N/A,,Clear,190,2012-11-09 07:55:00
2:15 AM,51.8,32.0,47,29.80,10.0,SSW,9.2,-,N/A,,Clear,200,2012-11-09 08:15:00
2:35 AM,51.8,32.0,47,29.80,10.0,South,10.4,-,N/A,,Clear,190,2012-11-09 08:35:00
2:55 AM,51.8,30.2,44,29.80,10.0,SSW,10.4,-,N/A,,Clear,200,2012-11-09 08:55:00
3:15 AM,51.8,30.2,44,29.80,10.0,SSW,9.2,-,N/A,,Clear,200,2012-11-09 09:15:00
3:35 AM,51.8,32.0,47,29.79,10.0,SSW,10.4,-,N/A,,Clear,200,2012-11-09 09:35:00
3:55 AM,55.4,33.8,44,29.79,10.0,SW,10.4,-,N/A,,Clear,220,2012-11-09 09:55:00
4:15 AM,55.4,35.6,47,29.79,10.0,SW,11.5,-,N/A,,Clear,220,2012-11-09 10:15:00
4:35 AM,59.0,35.6,42,29.79,10.0,SW,15.0,-,N/A,,Clear,220,2012-11-09 10:35:00
4:55 AM,57.2,35.6,44,29.79,10.0,SW,15.0,-,N/A,,Clear,220,2012-11-09 10:55:00
5:15 AM,55.4,37.4,51,29.79,10.0,SW,12.7,-,N/A,,Clear,220,2012-11-09 11:15:00
5:55 AM,53.6,39.2,58,29.79,10.0,SSW,11.5,-,N/A,,Clear,210,2012-11-09 11:55:00
6:15 AM,53.6,41.0,62,29.79,10.0,SSW,10.4,-,N/A,,Clear,210,2012-11-09 12:15:00
6:35 AM,53.6,41.0,62,29.79,10.0,SSW,10.4,-,N/A,,Clear,200,2012-11-09 12:35:00
6:55 AM,53.6,41.0,62,29.78,10.0,SSW,10.4,-,N/A,,Clear,200,2012-11-09 12:55:00
7:15 AM,53.6,41.0,62,29.78,10.0,SSW,11.5,-,N/A,,Clear,210,2012-11-09 13:15:00
7:35 AM,53.6,41.0,62,29.79,10.0,SSW,13.8,-,N/A,,Clear,210,2012-11-09 13:35:00
7:55 AM,55.4,41.0,58,29.79,10.0,SSW,10.4,-,N/A,,Clear,200,2012-11-09 13:55:00
8:15 AM,55.4,42.8,63,29.80,10.0,SSW,11.5,-,N/A,,Clear,210,2012-11-09 14:15:00
8:35 AM,59.0,42.8,55,29.80,10.0,SSW,13.8,-,N/A,,Clear,200,2012-11-09 14:35:00
8:55 AM,60.8,41.0,48,29.80,10.0,SSW,15.0,21.9,N/A,,Clear,210,2012-11-09 14:55:00
9:15 AM,62.6,41.0,45,29.80,10.0,SSW,16.1,19.6,N/A,,Clear,210,2012-11-09 15:15:00
9:35 AM,64.4,37.4,37,29.80,10.0,SSW,19.6,24.2,N/A,,Clear,210,2012-11-09 15:35:00
9:55 AM,68.0,35.6,30,29.80,10.0,SW,18.4,24.2,N/A,,Clear,220,2012-11-09 15:55:00
10:15 AM,69.8,33.8,27,29.80,10.0,SW,19.6,25.3,N/A,,Clear,220,2012-11-09 16:15:00
10:35 AM,73.4,32.0,22,29.80,10.0,SW,16.1,19.6,N/A,,Clear,220,2012-11-09 16:35:00
10:55 AM,73.4,32.0,22,29.79,10.0,SW,16.1,20.7,N/A,,Clear,220,2012-11-09 16:55:00
11:15 AM,77.0,30.2,18,29.79,10.0,SW,18.4,24.2,N/A,,Clear,220,2012-11-09 17:15:00
11:35 AM,78.8,30.2,17,29.78,10.0,SW,18.4,24.2,N/A,,Clear,220,2012-11-09 17:35:00
11:55 AM,78.8,32.0,18,29.77,10.0,SSW,19.6,23.0,N/A,,Clear,200,2012-11-09 17:55:00
12:15 PM,80.6,30.2,16,29.76,10.0,SSW,20.7,24.2,N/A,,Clear,210,2012-11-09 18:15:00
12:35 PM,80.6,30.2,16,29.75,10.0,SSW,20.7,29.9,N/A,,Clear,210,2012-11-09 18:35:00
12:55 PM,82.4,30.2,15,29.73,10.0,SSW,24.2,34.5,N/A,,Clear,210,2012-11-09 18:55:00
1:15 PM,82.4,30.2,15,29.73,10.0,SSW,26.5,38.0,N/A,,Clear,210,2012-11-09 19:15:00
1:35 PM,82.4,30.2,15,29.72,10.0,SSW,26.5,38.0,N/A,,Clear,210,2012-11-09 19:35:00
1:55 PM,82.4,32.0,16,29.71,10.0,SW,25.3,38.0,N/A,,Clear,230,2012-11-09 19:55:00
2:15 PM,82.4,32.0,16,29.71,10.0,SW,29.9,36.8,N/A,,Clear,220,2012-11-09 20:15:00
2:35 PM,82.4,30.2,15,29.70,10.0,SW,28.8,36.8,N/A,,Clear,220,2012-11-09 20:35:00
2:55 PM,80.6,30.2,16,29.71,10.0,SW,23.0,38.0,N/A,,Clear,230,2012-11-09 20:55:00
3:15 PM,82.4,30.2,15,29.70,10.0,SW,20.7,33.4,N/A,,Clear,220,2012-11-09 21:15:00
3:35 PM,80.6,28.4,15,29.71,10.0,SW,26.5,33.4,N/A,,Clear,220,2012-11-09 21:35:00
3:55 PM,80.6,28.4,15,29.71,10.0,SW,28.8,34.5,N/A,,Clear,230,2012-11-09 21:55:00
4:15 PM,80.6,26.6,14,29.71,10.0,SW,21.9,34.5,N/A,,Clear,220,2012-11-09 22:15:00
4:35 PM,78.8,26.6,15,29.71,10.0,SW,24.2,33.4,N/A,,Clear,230,2012-11-09 22:35:00
4:55 PM,78.8,28.4,16,29.71,10.0,SW,18.4,24.2,N/A,,Clear,230,2012-11-09 22:55:00
5:15 PM,77.0,30.2,18,29.71,10.0,SW,16.1,-,N/A,,Clear,220,2012-11-09 23:15:00
5:35 PM,73.4,28.4,19,29.72,10.0,SSW,13.8,19.6,N/A,,Clear,210,2012-11-09 23:35:00
5:55 PM,71.6,30.2,22,29.72,10.0,SSW,11.5,-,N/A,,Clear,200,2012-11-09 23:55:00
6:15 PM,68.0,30.2,24,29.72,10.0,SSW,10.4,-,N/A,,Clear,200,2012-11-10 00:15:00
6:35 PM,68.0,30.2,24,29.73,10.0,SSW,13.8,-,N/A,,Clear,200,2012-11-10 00:35:00
6:55 PM,68.0,32.0,26,29.73,10.0,South,10.4,-,N/A,,Clear,190,2012-11-10 00:55:00
7:15 PM,64.4,32.0,30,29.73,10.0,SSW,10.4,-,N/A,,Clear,200,2012-11-10 01:15:00
7:35 PM,69.8,35.6,28,29.73,10.0,SSW,17.3,-,N/A,,Clear,210,2012-11-10 01:35:00
7:55 PM,71.6,35.6,27,29.74,10.0,SSW,17.3,-,N/A,,Clear,210,2012-11-10 01:55:00
8:15 PM,69.8,35.6,28,29.74,10.0,SSW,13.8,-,N/A,,Clear,200,2012-11-10 02:15:00
8:35 PM,68.0,35.6,30,29.74,10.0,SSW,13.8,-,N/A,,Clear,200,2012-11-10 02:35:00
9:15 PM,68.0,35.6,30,29.75,10.0,SSW,17.3,-,N/A,,Clear,210,2012-11-10 03:15:00
9:35 PM,66.2,35.6,32,29.75,10.0,SSW,15.0,-,N/A,,Clear,200,2012-11-10 03:35:00
9:55 PM,64.4,35.6,34,29.75,10.0,SSW,16.1,-,N/A,,Clear,200,2012-11-10 03:55:00
10:15 PM,64.4,35.6,34,29.75,10.0,SSW,15.0,-,N/A,,Clear,200,2012-11-10 04:15:00
10:35 PM,62.6,35.6,37,29.76,10.0,SSW,12.7,-,N/A,,Clear,200,2012-11-10 04:35:00
10:55 PM,62.6,35.6,37,29.76,10.0,SSW,13.8,-,N/A,,Clear,210,2012-11-10 04:55:00
11:15 PM,62.6,35.6,37,29.76,10.0,SSW,13.8,20.7,N/A,,Clear,210,2012-11-10 05:15:00
11:35 PM,62.6,35.6,37,29.76,10.0,SSW,13.8,18.4,N/A,,Clear,210,2012-11-10 05:35:00
11:55 PM,62.6,37.4,39,29.76,10.0,SW,12.7,-,N/A,,Clear,220,2012-11-10 05:55:00